This is the latest recevied weather packets stored in our database for station/object DC1MAK-13. If no packets are shown the sender has not sent any weather packets the latest 10 day(s).
| Time | Temp. | Humidity | Pressure | Rain* | Wind** | Luminosity | Snow |
|---|---|---|---|---|---|---|---|
| 1787997268 | 21.11° C | 66% | 988.2 hPa | - | - | - | - |
| 1787996970 | 21.67° C | 67% | 988.3 hPa | - | - | - | - |
| 1787996965 | 21.67° C | 67% | 988.3 hPa | - | - | - | - |
| 1787996367 | 21.11° C | 68% | 988.4 hPa | - | - | - | - |
| 1787996060 | 20.56° C | 69% | 988.4 hPa | - | - | - | - |
| 1787996054 | 20.56° C | 69% | 988.4 hPa | - | - | - | - |
| 1787995756 | 20.56° C | 67% | 988.4 hPa | - | - | - | - |
| 1787995751 | 20.56° C | 67% | 988.4 hPa | - | - | - | - |
| 1787994847 | 20° C | 70% | 988.5 hPa | - | - | - | - |
| 1787994547 | 20.56° C | 71% | 988.6 hPa | - | - | - | - |
| 1787994239 | 20° C | 73% | 988.5 hPa | - | - | - | - |
| 1787994233 | 20° C | 73% | 988.5 hPa | - | - | - | - |
| 1787993936 | 20° C | 75% | 988.6 hPa | - | - | - | - |
| 1787993632 | 19.44° C | 76% | 988.5 hPa | - | - | - | - |
| 1787993027 | 19.44° C | 77% | 988.5 hPa | - | - | - | - |
| 1787992727 | 18.89° C | 75% | 988.6 hPa | - | - | - | - |
| 1787992418 | 18.89° C | 80% | 988.5 hPa | - | - | - | - |
| 1787992115 | 18.89° C | 82% | 988.5 hPa | - | - | - | - |
| 1787991812 | 18.89° C | 83% | 988.5 hPa | - | - | - | - |
| 1787991207 | 18.33° C | 84% | 988.6 hPa | - | - | - | - |
| 1787990907 | 17.78° C | 86% | 988.6 hPa | - | - | - | - |
| 1787990598 | 17.78° C | 88% | 988.5 hPa | - | - | - | - |
| 1787990294 | 17.78° C | 88% | 988.6 hPa | - | - | - | - |
| 1787989991 | 17.78° C | 88% | 988.5 hPa | - | - | - | - |
| 1787989387 | 17.78° C | 93% | 988.5 hPa | - | - | - | - |
* Rain since midnight (hover to see other rain measurements)
** Current wind speed in m/s (hover to see current wind gust speed)